RH
18 22 18 25 32 34 40 44 45 41 40 39 38 31 34 33 29 26 24 24 26 29 9 9 9 13 42 41 50 50 48 46 42 40 22 9 8 6 6 5 4 4 3 2
18 18 19 23 33 37 41 44 46 46 48 48 40 32 30 27 26 24 25 24 27 26 12 8 10 13 43 42 53 52 51 47 43 43 28 11 10 8 6 5 4 4 3 2
20 20 25 26 34 37 42 46 52 54 49 47 41 31 28 27 26 28 27 27 28 26 15 10 13 21 44 48 55 54 53 50 47 44 24 13 13 9 6 5 4 4 3 3
23 22 25 28 34 40 47 50 54 54 60 56 51 51 30 28 29 30 30 29 26 25 18 15 18 36 42 54 56 55 55 52 49 45 30 14 15 10 8 6 4 4 4 3
23 24 26 36 37 45 55 54 55 53 58 56 55 53 34 32 31 32 31 28 24 22 19 20 28 42 53 59 58 58 58 56 52 46 34 20 16 12 10 7 5 3 3 4
25 29 34 34 40 46 57 52 54 54 52 76 57 46 32 35 33 33 32 28 23 22 22 29 40 52 60 62 61 61 60 60 56 49 41 27 18 16 13 9 6 4 3 3
30 34 39 42 43 52 57 62 59 72 70 68 49 54 35 40 38 35 31 27 26 29 35 39 53 61 65 64 64 64 63 62 57 50 42 31 22 20 16 11 7 5 4 3
36 34 41 51 56 65 65 66 63 87 85 70 56 53 40 41 41 39 35 27 28 31 32 44 59 63 66 66 65 64 64 61 54 48 44 36 28 26 19 12 8 6 4 4
45 48 45 58 61 67 68 72 77 76 78 82 57 46 38 40 42 42 39 32 28 27 33 47 55 63 66 65 64 67 65 61 56 50 44 40 36 31 24 15 10 8 5 4
60 67 56 62 69 71 77 81 80 76 78 87 66 62 42 43 48 49 48 45 41 39 43 49 55 60 63 60 67 73 64 57 53 50 51 51 46 42 33 23 19 13 8 7
74 83 66 72 72 78 81 89 87 79 70 85 95 65 47 49 49 45 51 59 56 55 57 59 61 63 57 76 79 73 69 61 58 52 56 60 57 54 43 37 31 20 12 11
86 90 91 82 75 80 78 79 78 79 89 94 88 77 58 57 48 51 49 60 63 64 66 80 69 68 83 82 81 83 76 63 63 55 59 59 69 62 53 47 40 28 18 14
92 94 95 80 78 74 77 88 86 88 93 96 91 71 61 50 50 59 72 71 76 81 86 97 90 88 85 86 88 87 74 68 63 63 66 66 66 71 66 58 51 41 29 22
99 100 91 91 89 93 99 98 98 100 97 86 91 82 81 67 77 77 74 71 77 80 78 76 75 78 84 90 94 85 83 77 66 62 59 57 57 62 67 64 62 55 44 34
100 99 94 94 88 92 99 98 96 99 86 100 66 94 53 63 74 54 56 63 63 68 66 65 73 88 96 99 88 80 84 76 64 55 50 54 53 48 41 36 38 44 48 45
97 98 100 100 94 93 100 94 79 79 93 98 84 78 61 64 66 69 70 66 64 68 69 75 86 100 96 82 74 80 75 63 53 49 50 51 47 42 36 28 25 28 36 38
99 99 100 97 92 99 92 59 55 49 53 63 66 56 58 68 71 72 71 70 76 75 70 83 92 86 84 83 73 64 55 51 50 48 47 38 37 34 30 27 26 29 36 35
100 100 98 95 94 97 62 57 54 58 56 64 60 60 67 72 82 85 83 85 96 80 78 97 99 90 80 64 50 42 37 38 40 40 34 31 31 30 30 31 30 33 38 39
100 100 98 98 95 82 69 56 58 56 62 67 63 66 71 82 86 82 88 94 91 97 98 96 89 61 33 26 29 32 35 37 35 31 28 31 34 34 38 38 38 44 46 46
86 97 100 99 97 94 58 58 66 74 78 65 67 79 96 95 95 84 93 92 98 96 92 67 37 34 30 31 34 35 33 29 31 38 38 35 39 43 51 66 68 74 62 54
81 77 96 100 97 83 65 71 70 78 71 92 96 90 95 96 97 95 95 96 92 74 52 40 33 30 29 30 33 34 35 36 37 40 39 42 52 63 67 69 80 92 92 84
78 76 85 97 97 88 63 71 84 91 95 97 96 96 96 93 97 96 90 77 55 46 36 34 34 32 28 30 34 34 40 47 47 50 54 58 67 74 79 85 81 93 100 98
87 71 80 81 73 72 76 93 94 96 97 94 96 96 97 97 92 72 64 71 55 34 31 32 36 34 29 35 38 44 54 56 56 55 53 63 78 84 88 89 90 93 98 97
90 93 96 90 87 89 75 78 92 99 97 97 97 98 94 85 85 86 58 39 36 33 34 36 42 39 29 32 39 53 54 55 51 52 60 76 86 91 94 92 94 95 99 98
88 82 82 90 73 83 96 98 96 94 94 97 96 92 93 78 52 48 42 42 46 51 56 52 42 36 33 38 43 51 59 60 58 63 72 92 95 98 98 100 100 99 100 99
74 99 99 96 98 98 96 95 95 97 96 93 77 62 68 64 52 56 56 67 73 69 62 50 41 40 36 44 50 55 61 64 73 77 92 96 96 96 96 97 98 100 99 100
Wind_Speed
9 7 13 12 11 10 19 22 24 20 21 23 25 28 18 26 27 22 19 20 24 27 31 28 24 21 19 16 16 16 20 25 29 29 29 25 23 22 23 26 29 29 29 29
9 10 15 15 14 15 24 26 18 14 23 30 28 28 24 21 20 19 18 15 21 28 31 28 26 23 19 19 17 19 22 27 33 31 32 28 25 24 25 27 30 30 30 30
6 14 15 16 15 20 24 17 19 29 32 28 24 16 12 14 16 17 17 18 21 26 28 27 27 23 21 20 20 22 25 29 32 34 35 31 28 28 28 29 30 31 31 33
6 18 12 17 17 22 22 19 28 31 26 10 15 7 10 15 17 18 17 18 21 25 28 29 27 23 22 22 22 24 27 31 35 37 36 34 31 29 29 30 30 30 32 32
14 13 14 11 19 23 19 23 29 32 22 14 7 6 7 17 20 18 15 18 22 25 28 27 25 22 22 23 22 23 27 32 35 36 37 35 34 33 31 31 31 31 33 34
16 8 12 12 20 21 16 31 26 16 9 2 2 3 6 8 16 16 17 20 22 24 25 26 23 22 22 22 23 26 31 37 39 39 40 39 36 34 33 33 32 31 33 34
13 10 7 14 20 17 25 17 8 5 3 3 5 12 9 10 10 13 17 21 22 24 25 24 23 23 22 24 26 31 36 39 38 38 39 39 37 35 33 32 32 32 32 33
9 9 13 22 11 21 16 11 1 4 3 6 27 8 6 9 8 12 18 21 22 25 25 26 27 27 27 28 30 36 41 39 38 38 39 39 37 34 33 33 33 33 33 33
8 9 25 13 13 20 12 6 10 7 8 3 6 7 14 18 15 15 16 19 23 26 27 29 30 32 33 34 36 43 40 39 41 41 39 37 36 35 33 32 33 33 33 33
10 16 13 9 24 17 15 13 6 4 2 5 6 10 21 14 16 14 15 18 22 25 29 32 34 35 35 37 42 46 37 40 39 38 38 36 35 34 32 32 32 33 33 34
20 10 14 24 24 21 19 13 6 5 5 3 4 6 8 12 21 26 24 22 24 26 28 30 35 35 37 43 46 34 38 42 40 39 38 37 35 33 33 33 33 34 34 35
14 11 20 29 21 17 11 7 7 6 5 10 14 23 16 10 5 5 14 17 23 25 27 32 36 39 44 40 32 37 42 41 38 37 37 36 35 34 34 34 34 34 34 35
17 9 18 12 8 3 7 13 17 24 26 26 15 15 10 16 17 22 25 32 34 33 34 41 41 43 38 33 36 41 43 37 37 35 36 35 36 36 36 36 36 35 35 35
27 25 25 24 33 36 31 34 36 34 23 36 38 52 47 43 42 39 36 29 29 32 31 30 33 33 35 37 41 45 40 37 37 35 36 36 36 37 37 39 40 39 38 39
26 35 38 43 40 41 41 40 40 45 48 40 55 43 35 35 38 22 20 21 22 24 24 28 33 35 37 40 45 43 39 38 39 37 36 36 38 39 39 40 42 43 43 43
35 37 42 46 42 34 32 30 43 47 47 50 47 43 22 18 18 20 25 19 22 25 32 33 35 38 41 42 43 44 43 40 37 37 38 39 42 45 47 47 47 48 49 49
39 39 36 30 28 30 31 24 15 18 21 17 23 23 25 23 25 19 21 29 26 30 34 39 42 40 38 39 40 41 40 40 43 43 43 45 48 51 51 51 50 51 51 51
41 40 30 27 29 7 7 7 19 27 28 28 18 33 27 30 23 25 33 28 29 41 38 35 34 35 35 35 39 44 46 48 49 48 49 51 51 51 50 48 47 47 47 47
31 32 20 11 18 31 31 16 14 20 25 29 32 25 23 25 31 40 33 33 39 36 33 32 33 35 38 41 43 47 48 50 52 52 51 49 49 49 49 49 49 48 48 47
16 22 27 22 7 6 16 31 37 39 33 23 13 15 42 41 41 31 32 34 33 28 29 31 34 38 40 42 46 50 51 51 51 48 49 48 48 50 50 48 48 48 49 49
16 19 29 32 19 20 21 20 22 14 19 14 30 48 38 26 26 27 26 24 26 29 32 35 39 42 43 44 46 49 50 51 50 51 51 50 51 54 51 51 49 47 46 45
20 17 21 13 13 15 19 16 22 32 44 43 44 49 25 30 26 23 23 26 30 34 37 38 42 45 44 45 48 51 50 50 49 49 50 52 52 49 48 45 43 41 41 40
26 30 25 21 30 34 42 45 45 44 42 51 31 25 26 21 24 26 29 37 38 37 38 41 45 47 46 48 50 50 49 50 49 50 52 51 47 46 42 39 36 35 35 35
28 28 32 35 37 33 44 41 37 42 27 37 35 25 19 24 28 32 35 36 38 41 44 47 49 49 48 49 50 50 52 53 53 53 52 48 46 41 36 34 32 30 30 31
33 41 41 39 36 31 30 25 34 42 39 22 18 25 28 32 33 36 37 40 42 43 45 47 49 50 51 52 52 53 53 53 53 53 49 46 42 37 34 32 30 30 27 27
29 27 27 31 28 33 39 41 28 17 16 22 26 26 28 33 36 39 40 43 46 48 48 48 49 51 54 55 55 54 53 53 51 47 44 41 37 34 30 28 25 22 24 24
Wind_Direction
352 354 356 356 352 349 339 328 312 309 300 296 296 289 279 264 268 256 244 247 229 215 216 222 232 241 248 269 289 309 322 331 332 330 331 326 323 321 316 313 308 307 306 306
345 348 343 341 328 326 332 327 321 318 313 306 303 295 281 268 247 234 236 228 216 208 216 221 234 243 251 268 286 303 320 332 334 329 328 323 320 318 313 311 309 308 305 305
345 344 335 337 332 324 328 328 324 317 313 307 305 305 267 244 227 226 227 222 214 212 217 223 236 240 250 268 284 304 320 328 334 329 326 321 318 318 315 312 312 310 308 306
342 336 331 332 334 332 333 325 321 315 313 307 300 286 263 233 225 226 233 231 223 213 216 224 232 238 255 267 283 303 316 323 329 326 321 319 316 314 311 312 312 310 307 304
338 339 327 319 330 333 321 327 321 310 306 301 292 251 250 230 227 234 233 226 219 213 217 225 233 242 256 270 292 307 316 323 324 322 318 317 315 313 314 315 314 310 307 307
334 331 327 321 323 328 324 332 318 305 307 283 326 307 271 241 235 238 236 228 220 220 224 227 236 247 260 279 293 305 315 318 320 319 315 315 313 312 313 313 311 307 304 305
328 329 322 316 328 333 327 337 326 336 333 241 325 315 267 274 251 241 241 234 226 225 227 234 242 250 266 283 303 313 316 317 316 314 312 312 311 309 309 309 307 305 305 306
330 324 326 321 324 330 325 343 320 262 287 304 302 258 281 298 280 256 242 235 237 239 241 243 247 258 270 285 301 313 316 315 312 312 310 308 307 307 308 309 308 309 309 310
320 299 315 311 322 330 317 308 297 253 280 305 262 281 293 287 277 275 264 252 246 247 251 255 259 264 275 288 302 314 313 310 311 309 307 305 306 307 308 308 308 310 311 311
309 304 306 307 319 320 307 300 300 247 323 288 267 271 256 283 298 300 297 278 262 261 262 265 271 277 287 296 304 309 307 313 313 308 305 304 304 304 306 307 309 311 312 312
317 292 296 311 314 304 298 291 257 249 262 211 299 246 285 277 294 296 297 288 276 276 282 290 286 289 293 301 301 301 314 317 310 306 301 301 301 302 304 307 309 311 314 313
305 292 287 309 302 296 283 261 232 228 253 245 263 280 290 292 299 333 314 287 283 283 283 293 287 286 293 296 292 307 314 312 305 301 297 299 297 299 301 304 308 310 311 312
303 291 306 296 289 246 279 274 267 270 268 254 255 264 264 285 285 302 303 293 289 288 275 284 284 285 288 285 292 303 308 303 301 299 298 300 298 298 299 300 301 303 304 306
300 280 275 267 282 287 279 285 283 278 266 276 258 273 280 290 296 302 297 289 278 276 278 284 286 282 280 283 294 304 304 303 304 303 302 301 301 299 297 297 298 298 298 299
286 282 290 291 294 292 288 285 280 273 275 263 279 278 291 305 298 293 287 291 293 291 285 285 281 279 282 291 299 303 301 302 302 303 304 302 301 300 300 299 296 294 292 290
292 284 295 287 296 297 283 283 286 279 273 271 278 284 316 308 300 288 294 289 294 298 291 283 283 287 294 300 302 301 302 303 305 306 306 304 302 300 299 297 294 291 288 285
281 286 283 281 297 294 296 297 282 285 280 281 281 312 316 294 293 296 302 305 292 295 303 293 292 297 300 303 304 302 307 308 307 305 301 300 297 296 296 295 293 291 290 287
272 274 272 287 300 261 277 282 295 286 280 291 286 312 288 283 284 307 310 295 289 303 299 297 300 304 309 311 309 309 309 306 303 302 300 301 299 298 297 295 293 292 290 289
263 263 268 266 269 279 294 285 288 306 292 293 300 289 276 273 285 310 303 291 295 295 295 301 312 315 316 316 311 306 303 302 302 303 303 302 302 300 297 294 292 290 289 289
264 255 250 259 262 262 291 294 298 298 296 302 284 283 311 302 300 301 296 292 289 298 316 319 314 314 312 309 305 303 305 305 306 305 306 305 302 301 298 297 295 291 286 284
277 266 248 249 252 270 285 286 294 290 306 285 296 306 304 306 292 290 289 305 321 326 319 316 313 312 311 310 307 307 307 308 308 308 308 306 303 302 300 299 295 289 286 284
271 266 257 248 238 271 290 294 306 300 295 303 302 307 304 309 291 303 324 328 320 321 319 314 311 311 314 313 312 312 312 310 310 310 310 308 307 304 303 301 299 291 287 284
264 269 278 268 270 281 289 292 298 299 298 300 307 296 303 300 326 333 326 322 318 313 312 314 315 315 315 315 314 313 313 312 311 311 310 310 308 308 305 303 301 296 290 287
286 276 277 289 289 294 292 296 294 293 297 318 314 297 324 336 333 328 322 314 313 311 309 314 317 316 315 316 316 313 312 311 311 310 311 310 310 308 304 301 299 296 292 291
287 292 296 297 302 303 299 284 289 307 311 287 289 330 338 333 328 321 317 315 315 313 315 318 317 316 318 317 315 315 314 313 311 312 311 311 310 305 301 299 298 295 294 293
309 305 296 293 297 298 301 308 316 319 317 328 341 336 323 319 317 316 316 318 318 318 319 319 319 317 318 317 315 313 313 312 312 311 310 311 307 304 303 302 300 299 300 298